Tracking 19817 objects as of 17-Aug-2019
HD Live streaming from Space Station
objects crossing your sky now

COSMOS 2251 DEB

Track COSMOS 2251 DEB now!
10-day predictions


NORAD ID: 34007
Int'l Code: 1993-036GS
Perigee: 688.9 km
Apogee: 773.0 km
Inclination: 74.0 °
Period: 99.3 minutes
Semi major axis: 7101 km
RCS: 0.0197 m2 (small)
Launch date: June 16, 1993
Source: Commonwealth of Independent States (former USSR) (CIS)
Launch site: PLESETSK MISSILE AND SPACE COMPLEX (PKMTR)

Note: This is SATELLITE DEBRIS
aabbcc
Your satellite tracking list
Your tracking list is empty




NASA's NSSDC Master Catalog

Two Line Element Set (TLE):
1 34007U 93036GS  19228.88484305 +.00000178 +00000-0 +51822-4 0  9995
2 34007 074.0234 038.8342 0059189 023.7680 336.6193 14.50571678554999
Source of the keplerian elements: AFSPC